| time (UTC) | temp C | wind direction | speed KPH | gust KPH | rain 1hr cm | rain 24hr cm | rain mn cm | humidity % | barometer mb |
| 20260504041534 | 6 | 120 | 0.0 | 0.0 | 0.00 | 0.03 | 0.03 | 90 | 1016.3 |
| 20260504040038 | 6 | 120 | 0.0 | 0.0 | 0.00 | 0.03 | 0.03 | 89 | 1016.4 |
| 20260504034535 | 7 | 121 | 0.0 | 1.6 | 0.00 | 0.03 | 0.03 | 89 | 1016.6 |
| 20260504033046 | 7 | 137 | 0.0 | 0.0 | 0.00 | 0.03 | 0.03 | 88 | 1016.7 |
| 20260504030032 | 8 | 137 | 0.0 | 0.0 | 0.00 | 0.03 | 0.03 | 85 | 1016.7 |
| 20260504024543 | 8 | 125 | 0.0 | 0.0 | 0.00 | 0.03 | 0.03 | 84 | 1016.6 |
| 20260504023031 | 8 | 125 | 0.0 | 0.0 | 0.00 | 0.03 | 0.03 | 82 | 1016.4 |
| 20260504021531 | 8 | 125 | 0.0 | 0.0 | 0.00 | 0.03 | 0.03 | 82 | 1016.1 |
| 20260504020030 | 9 | 129 | 0.0 | 1.6 | 0.00 | 0.03 | 0.03 | 80 | 1015.8 |
| 20260504014530 | 10 | 130 | 0.0 | 1.6 | 0.00 | 0.03 | 0.03 | 77 | 1015.6 |
| 20260504013029 | 10 | 140 | 0.0 | 1.6 | 0.00 | 0.03 | 0.03 | 76 | 1015.5 |
| 20260504011528 | 11 | 129 | 0.0 | 1.6 | 0.00 | 0.03 | 0.03 | 71 | 1015.7 |
| 20260504010029 | 13 | 140 | 0.0 | 4.8 | 0.00 | 0.03 | 0.03 | 64 | 1015.4 |
| 20260504004540 | 14 | 152 | 1.6 | 3.2 | 0.00 | 0.03 | 0.03 | 58 | 1015.5 |
| 20260504003027 | 16 | 151 | 3.2 | 3.2 | 0.00 | 0.03 | 0.03 | 47 | 1015.5 |
| 20260504001526 | 18 | 160 | 0.0 | 1.6 | 0.00 | 0.03 | 0.03 | 40 | 1015.6 |
| 20260504000024 | 18 | 257 | 1.6 | 6.4 | 0.00 | 0.03 | 0.03 | 37 | 1015.8 |
| 20260503234524 | 18 | 288 | 3.2 | 11.3 | 0.00 | 0.03 | 0.03 | 36 | 1015.9 |
| 20260503233029 | 19 | 269 | 0.0 | 11.3 | 0.00 | 0.03 | 0.03 | 37 | 1015.7 |
| 20260503231522 | 19 | 232 | 1.6 | 12.9 | 0.00 | 0.03 | 0.03 | 36 | 1015.7 |
| 20260503230019 | 19 | 248 | 8.0 | 16.1 | 0.00 | 0.03 | 0.03 | 35 | 1016.1 |
| 20260503224517 | 18 | 252 | 3.2 | 16.1 | 0.00 | 0.05 | 0.03 | 38 | 1016.3 |
| 20260503223017 | 18 | 241 | 1.6 | 14.5 | 0.00 | 0.05 | 0.03 | 38 | 1016.4 |
| 20260503221516 | 18 | 273 | 6.4 | 14.5 | 0.00 | 0.05 | 0.03 | 38 | 1016.6 |
| 20260503220015 | 18 | 289 | 11.3 | 16.1 | 0.00 | 0.05 | 0.03 | 37 | 1016.8 |
| 20260503214511 | 18 | 297 | 8.0 | 12.9 | 0.00 | 0.05 | 0.03 | 37 | 1016.9 |
| 20260503213015 | 18 | 236 | 8.0 | 16.1 | 0.00 | 0.05 | 0.03 | 38 | 1017.1 |
| 20260503211506 | 18 | 187 | 3.2 | 14.5 | 0.00 | 0.05 | 0.03 | 38 | 1017.2 |
| 20260503210004 | 18 | 329 | 8.0 | 17.7 | 0.00 | 0.05 | 0.03 | 37 | 1017.5 |
| 20260503204501 | 18 | 287 | 8.0 | 17.7 | 0.00 | 0.05 | 0.03 | 35 | 1017.7 |
| 20260503203101 | 17 | 290 | 4.8 | 19.3 | 0.00 | 0.05 | 0.03 | 37 | 1017.9 |
| 20260503201557 | 18 | 286 | 12.9 | 19.3 | 0.00 | 0.05 | 0.03 | 36 | 1018.3 |
| 20260503200155 | 17 | 238 | 6.4 | 17.7 | 0.00 | 0.05 | 0.03 | 39 | 1018.5 |
| 20260503194551 | 17 | 345 | 12.9 | 19.3 | 0.00 | 0.05 | 0.03 | 38 | 1018.7 |
| 20260503193055 | 17 | 302 | 4.8 | 14.5 | 0.00 | 0.05 | 0.03 | 36 | 1019.0 |
| 20260503191544 | 17 | 295 | 12.9 | 19.3 | 0.00 | 0.05 | 0.03 | 35 | 1019.2 |
| 20260503190044 | 16 | 325 | 8.0 | 19.3 | 0.00 | 0.05 | 0.03 | 41 | 1019.4 |
| 20260503184551 | 17 | 250 | 1.6 | 11.3 | 0.00 | 0.05 | 0.03 | 41 | 1019.6 |
| 20260503183037 | 16 | 350 | 4.8 | 19.3 | 0.00 | 0.05 | 0.03 | 40 | 1019.8 |
| 20260503181536 | 16 | 283 | 6.4 | 19.3 | 0.00 | 0.05 | 0.03 | 40 | 1020.1 |
| 20260503180031 | 16 | 355 | 1.6 | 14.5 | 0.00 | 0.05 | 0.03 | 40 | 1020.1 |
| 20260503174537 | 16 | 281 | 6.4 | 12.9 | 0.00 | 0.05 | 0.03 | 39 | 1020.5 |
| 20260503173027 | 15 | 8 | 4.8 | 16.1 | 0.00 | 0.05 | 0.03 | 40 | 1020.8 |
| 20260503171524 | 15 | 304 | 6.4 | 12.9 | 0.00 | 0.05 | 0.03 | 40 | 1020.9 |
| 20260503081508 | 3 | 148 | 0.0 | 0.0 | 0.00 | 0.03 | 0.00 | 96 | 1020.1 |
| 20260503071600 | 4 | 139 | 0.0 | 0.0 | 0.00 | 0.03 | 0.00 | 96 | 1019.9 |
| 20260503054551 | 3 | 140 | 0.0 | 0.0 | 0.00 | 0.03 | 0.00 | 95 | 1019.7 |
| 20260503053049 | 3 | 140 | 0.0 | 0.0 | 0.00 | 0.03 | 0.00 | 95 | 1019.6 |
| 20260503051547 | 4 | 140 | 0.0 | 1.6 | 0.00 | 0.03 | 0.00 | 95 | 1019.7 |
| 20260503050044 | 4 | 140 | 0.0 | 0.0 | 0.00 | 0.03 | 0.00 | 95 | 1019.5 |
| 20260503044547 | 5 | 140 | 0.0 | 0.0 | 0.00 | 0.03 | 0.03 | 96 | 1019.3 |
| 20260503043042 | 5 | 140 | 0.0 | 0.0 | 0.00 | 0.03 | 0.03 | 95 | 1019.1 |